| time (UTC) | temp F | wind direction | speed MPH | gust MPH | rain 1hr in | rain 24hr in | rain mn in | humidity % | barometer mb |
| 20260507060157 | 47 | 246 | 0.0 | 0.0 | 0.00 | 0.00 | 0.00 | 96 | 1007.4 |
| 20260507055653 | 48 | 251 | 0.0 | 0.0 | 0.00 | 0.00 | 0.00 | 96 | 1007.2 |
| 20260507055149 | 47 | 250 | 0.0 | 0.0 | 0.00 | 0.00 | 0.00 | 96 | 1007.4 |
| 20260507054645 | 47 | 286 | 0.0 | 0.0 | 0.00 | 0.00 | 0.00 | 97 | 1007.4 |
| 20260507054142 | 47 | 99 | 0.0 | 1.0 | 0.00 | 0.00 | 0.00 | 98 | 1007.4 |
| 20260507053640 | 48 | 157 | 0.0 | 0.0 | 0.00 | 0.00 | 0.00 | 98 | 1007.6 |
| 20260507053138 | 47 | 221 | 0.0 | 1.0 | 0.00 | 0.00 | 0.00 | 98 | 1007.4 |
| 20260507052636 | 48 | 342 | 0.0 | 0.0 | 0.00 | 0.00 | 0.00 | 98 | 1007.6 |
| 20260507052132 | 48 | 148 | 0.0 | 0.0 | 0.00 | 0.00 | 0.00 | 98 | 1007.4 |
| 20260507051630 | 48 | 155 | 0.0 | 0.0 | 0.00 | 0.00 | 0.00 | 97 | 1007.3 |
| 20260507051126 | 48 | 162 | 0.0 | 0.0 | 0.00 | 0.00 | 0.00 | 97 | 1007.3 |
| 20260507050623 | 48 | 128 | 0.0 | 0.0 | 0.00 | 0.00 | 0.00 | 96 | 1007.0 |
| 20260507050120 | 48 | 139 | 0.0 | 0.0 | 0.00 | 0.00 | 0.00 | 96 | 1007.3 |
| 20260507045617 | 48 | 117 | 0.0 | 0.0 | 0.00 | 0.00 | 0.00 | 96 | 1007.0 |
| 20260507045114 | 48 | 149 | 0.0 | 0.0 | 0.00 | 0.00 | 0.00 | 96 | 1007.0 |
| 20260507044610 | 48 | 150 | 0.0 | 0.0 | 0.00 | 0.00 | 0.00 | 96 | 1007.2 |
| 20260507044108 | 48 | 246 | 0.0 | 2.0 | 0.00 | 0.00 | 0.00 | 96 | 1007.3 |
| 20260507043603 | 48 | 167 | 0.0 | 0.0 | 0.00 | 0.00 | 0.00 | 97 | 1007.3 |
| 20260507043101 | 48 | 182 | 0.0 | 0.0 | 0.00 | 0.00 | 0.00 | 96 | 1007.3 |
| 20260507042556 | 49 | 190 | 0.0 | 0.0 | 0.00 | 0.00 | 0.00 | 96 | 1006.9 |
| 20260507042052 | 49 | 72 | 0.0 | 1.0 | 0.00 | 0.00 | 0.00 | 95 | 1006.9 |
| 20260507041549 | 49 | 158 | 0.0 | 0.0 | 0.00 | 0.00 | 0.00 | 95 | 1007.6 |
| 20260507041046 | 49 | 270 | 0.0 | 0.0 | 0.00 | 0.00 | 0.00 | 95 | 1007.7 |
| 20260507040542 | 49 | 105 | 0.0 | 0.0 | 0.00 | 0.00 | 0.00 | 94 | 1007.3 |
| 20260507040039 | 49 | 149 | 0.0 | 2.0 | 0.00 | 0.22 | 0.22 | 94 | 1007.6 |
| 20260507035535 | 49 | 303 | 0.0 | 1.0 | 0.00 | 0.22 | 0.22 | 95 | 1007.5 |
| 20260507035031 | 49 | 291 | 0.0 | 2.0 | 0.00 | 0.22 | 0.22 | 94 | 1007.3 |
| 20260507034528 | 49 | 262 | 0.0 | 0.0 | 0.00 | 0.22 | 0.22 | 95 | 1007.2 |
| 20260507034026 | 49 | 319 | 0.0 | 0.0 | 0.00 | 0.22 | 0.22 | 95 | 1006.9 |
| 20260507033524 | 49 | 229 | 0.0 | 3.0 | 0.00 | 0.22 | 0.22 | 95 | 1007.0 |
| 20260507033021 | 50 | 284 | 1.0 | 2.0 | 0.00 | 0.22 | 0.22 | 96 | 1007.1 |
| 20260507032518 | 50 | 299 | 2.0 | 2.0 | 0.00 | 0.22 | 0.22 | 97 | 1007.0 |
| 20260507032014 | 50 | 271 | 0.0 | 0.0 | 0.00 | 0.22 | 0.22 | 97 | 1006.9 |
| 20260507031510 | 50 | 190 | 0.0 | 0.0 | 0.00 | 0.22 | 0.22 | 97 | 1006.8 |
| 20260507031008 | 50 | 237 | 0.0 | 1.0 | 0.00 | 0.22 | 0.22 | 97 | 1007.0 |
| 20260507030504 | 51 | 283 | 0.0 | 0.0 | 0.00 | 0.22 | 0.22 | 97 | 1007.0 |
| 20260507030002 | 51 | 256 | 0.0 | 1.0 | 0.05 | 0.22 | 0.22 | 97 | 1007.0 |
| 20260507025459 | 51 | 210 | 0.0 | 1.0 | 0.05 | 0.22 | 0.22 | 97 | 1007.0 |
| 20260507024956 | 51 | 218 | 0.0 | 0.0 | 0.07 | 0.21 | 0.21 | 97 | 1007.1 |
| 20260507024454 | 52 | 205 | 0.0 | 0.0 | 0.07 | 0.21 | 0.21 | 96 | 1007.2 |
| 20260507023949 | 52 | 145 | 0.0 | 0.0 | 0.00 | 0.20 | 0.20 | 96 | 1007.1 |
| 20260507023446 | 52 | 305 | 1.0 | 3.0 | 0.05 | 0.20 | 0.20 | 95 | 1006.9 |
| 20260507022943 | 52 | 59 | 0.0 | 1.0 | 0.05 | 0.20 | 0.20 | 96 | 1006.9 |
| 20260507022441 | 52 | 304 | 2.0 | 3.0 | 0.00 | 0.19 | 0.19 | 96 | 1007.0 |
| 20260507021936 | 53 | 292 | 2.0 | 2.0 | 0.00 | 0.19 | 0.19 | 97 | 1006.7 |
| 20260507021431 | 53 | 240 | 0.0 | 1.0 | 0.00 | 0.19 | 0.19 | 98 | 1006.6 |
| 20260507020930 | 54 | 14 | 0.0 | 1.0 | 0.00 | 0.19 | 0.19 | 98 | 1006.4 |
| 20260507020426 | 54 | 150 | 0.0 | 1.0 | 0.00 | 0.19 | 0.19 | 98 | 1006.3 |
| 20260507015923 | 55 | 28 | 0.0 | 1.0 | 0.00 | 0.19 | 0.19 | 99 | 1006.2 |
| 20260507015421 | 55 | 46 | 0.0 | 0.0 | 0.00 | 0.19 | 0.19 | 99 | 1006.1 |
| 20260507014918 | 56 | 179 | 0.0 | 0.0 | 0.00 | 0.19 | 0.19 | 99 | 1005.9 |
| 20260507014414 | 56 | 51 | 0.0 | 0.0 | 0.07 | 0.19 | 0.19 | 99 | 1005.9 |
| 20260507013910 | 56 | 52 | 0.0 | 0.0 | 0.07 | 0.19 | 0.19 | 98 | 1005.8 |
| 20260507013408 | 56 | 178 | 0.0 | 0.0 | 0.00 | 0.18 | 0.18 | 98 | 1005.7 |
| 20260507012906 | 56 | 203 | 0.0 | 0.0 | 0.00 | 0.18 | 0.18 | 98 | 1005.8 |
| 20260507012401 | 57 | 193 | 0.0 | 0.0 | 0.07 | 0.18 | 0.18 | 98 | 1005.5 |
| 20260507011859 | 57 | 152 | 0.0 | 0.0 | 0.00 | 0.17 | 0.17 | 98 | 1005.8 |
| 20260507011355 | 57 | 100 | 0.0 | 0.0 | 0.00 | 0.17 | 0.17 | 98 | 1005.4 |
| 20260507010855 | 57 | 101 | 0.0 | 0.0 | 0.00 | 0.17 | 0.17 | 98 | 1005.7 |
| 20260507010351 | 58 | 77 | 0.0 | 0.0 | 0.12 | 0.17 | 0.17 | 98 | 1005.4 |
| 20260507005848 | 58 | 336 | 1.0 | 2.0 | 0.24 | 0.17 | 0.17 | 98 | 1005.5 |
| 20260507005345 | 59 | 248 | 0.0 | 0.0 | 0.12 | 0.15 | 0.15 | 99 | 1005.3 |
| 20260507004842 | 59 | 330 | 0.0 | 1.0 | 0.00 | 0.13 | 0.13 | 98 | 1005.2 |
| 20260507004339 | 59 | 205 | 0.0 | 0.0 | 0.00 | 0.13 | 0.13 | 98 | 1004.9 |
| 20260507003836 | 59 | 169 | 0.0 | 0.0 | 0.00 | 0.13 | 0.13 | 98 | 1004.8 |
| 20260507003331 | 59 | 166 | 0.0 | 0.0 | 0.00 | 0.13 | 0.13 | 97 | 1004.7 |
| 20260507002826 | 59 | 164 | 0.0 | 0.0 | 0.00 | 0.13 | 0.13 | 97 | 1004.7 |
| 20260507002323 | 59 | 163 | 0.0 | 0.0 | 0.00 | 0.13 | 0.13 | 97 | 1004.5 |
| 20260507001820 | 60 | 189 | 0.0 | 0.0 | 0.00 | 0.13 | 0.13 | 96 | 1004.4 |
| 20260507001317 | 60 | 175 | 0.0 | 0.0 | 0.00 | 0.13 | 0.13 | 96 | 1004.6 |
| 20260507000813 | 60 | 187 | 0.0 | 0.0 | 0.00 | 0.13 | 0.13 | 96 | 1004.6 |
| 20260507000309 | 60 | 182 | 0.0 | 0.0 | 0.00 | 0.13 | 0.13 | 95 | 1004.5 |
| 20260506235807 | 60 | 171 | 0.0 | 0.0 | 0.00 | 0.13 | 0.13 | 95 | 1004.4 |
| 20260506235306 | 60 | 104 | 0.0 | 1.0 | 0.00 | 0.13 | 0.13 | 95 | 1004.4 |
| 20260506234759 | 60 | 160 | 0.0 | 0.0 | 0.00 | 0.13 | 0.13 | 94 | 1004.3 |
| 20260506234257 | 60 | 246 | 1.0 | 3.0 | 0.00 | 0.13 | 0.13 | 94 | 1004.2 |
| 20260506233754 | 60 | 202 | 0.0 | 0.0 | 0.00 | 0.13 | 0.13 | 95 | 1004.1 |
| 20260506233250 | 60 | 178 | 0.0 | 0.0 | 0.00 | 0.13 | 0.13 | 95 | 1004.2 |
| 20260506232747 | 60 | 178 | 0.0 | 0.0 | 0.00 | 0.13 | 0.13 | 94 | 1004.2 |
| 20260506232241 | 60 | 189 | 0.0 | 1.0 | 0.00 | 0.13 | 0.13 | 94 | 1004.3 |
| 20260506231739 | 60 | 202 | 0.0 | 1.0 | 0.00 | 0.13 | 0.13 | 94 | 1004.2 |
| 20260506231238 | 60 | 103 | 2.0 | 2.0 | 0.00 | 0.13 | 0.13 | 93 | 1004.3 |
| 20260506230734 | 61 | 155 | 0.0 | 0.0 | 0.00 | 0.13 | 0.13 | 93 | 1004.5 |
| 20260506230231 | 60 | 131 | 1.0 | 2.0 | 0.00 | 0.13 | 0.13 | 93 | 1004.4 |
| 20260506225727 | 60 | 99 | 1.0 | 2.0 | 0.00 | 0.13 | 0.13 | 93 | 1004.5 |
| 20260506225224 | 61 | 272 | 0.0 | 0.0 | 0.00 | 0.13 | 0.13 | 93 | 1004.4 |
| 20260506224721 | 61 | 124 | 2.0 | 3.0 | 0.00 | 0.13 | 0.13 | 92 | 1004.5 |
| 20260506224218 | 60 | 136 | 1.0 | 2.0 | 0.00 | 0.13 | 0.13 | 93 | 1004.4 |
| 20260506223714 | 61 | 158 | 0.0 | 0.0 | 0.00 | 0.13 | 0.13 | 94 | 1004.2 |
| 20260506223210 | 61 | 149 | 0.0 | 0.0 | 0.00 | 0.13 | 0.13 | 93 | 1004.4 |
| 20260506222707 | 61 | 125 | 0.0 | 0.0 | 0.00 | 0.13 | 0.13 | 93 | 1004.4 |
| 20260506222202 | 61 | 338 | 0.0 | 1.0 | 0.00 | 0.13 | 0.13 | 92 | 1004.4 |
| 20260506221701 | 61 | 109 | 2.0 | 4.0 | 0.00 | 0.13 | 0.13 | 92 | 1004.3 |
| 20260506221158 | 61 | 88 | 1.0 | 1.0 | 0.00 | 0.13 | 0.13 | 94 | 1004.4 |
| 20260506220655 | 61 | 164 | 0.0 | 1.0 | 0.00 | 0.13 | 0.13 | 92 | 1004.2 |
| 20260506220150 | 61 | 146 | 1.0 | 1.0 | 0.00 | 0.13 | 0.13 | 93 | 1004.4 |
| 20260506215647 | 61 | 136 | 1.0 | 1.0 | 0.00 | 0.13 | 0.13 | 94 | 1004.4 |
| 20260506215142 | 62 | 168 | 0.0 | 0.0 | 0.00 | 0.13 | 0.13 | 94 | 1004.7 |
| 20260506214639 | 62 | 156 | 1.0 | 2.0 | 0.00 | 0.13 | 0.13 | 94 | 1004.5 |
| 20260506214137 | 62 | 136 | 1.0 | 2.0 | 0.00 | 0.13 | 0.13 | 95 | 1004.4 |
| 20260506213635 | 62 | 193 | 0.0 | 0.0 | 0.00 | 0.13 | 0.13 | 96 | 1004.6 |
| 20260506213132 | 62 | 127 | 0.0 | 1.0 | 0.00 | 0.13 | 0.13 | 95 | 1004.6 |
| 20260506212630 | 62 | 131 | 1.0 | 1.0 | 0.00 | 0.13 | 0.13 | 96 | 1004.6 |
| 20260506212124 | 62 | 182 | 0.0 | 0.0 | 0.00 | 0.13 | 0.13 | 97 | 1004.7 |
| 20260506211620 | 62 | 160 | 0.0 | 0.0 | 0.00 | 0.13 | 0.13 | 97 | 1004.8 |
| 20260506211117 | 61 | 160 | 0.0 | 1.0 | 0.00 | 0.13 | 0.13 | 97 | 1004.8 |
| 20260506210614 | 62 | 187 | 1.0 | 1.0 | 0.00 | 0.13 | 0.13 | 97 | 1004.9 |
| 20260506210110 | 61 | 119 | 0.0 | 0.0 | 0.05 | 0.13 | 0.13 | 97 | 1004.8 |
| 20260506205607 | 61 | 228 | 0.0 | 1.0 | 0.05 | 0.13 | 0.13 | 97 | 1004.7 |
| 20260506205102 | 61 | 135 | 0.0 | 1.0 | 0.00 | 0.12 | 0.12 | 97 | 1004.7 |
| 20260506204600 | 62 | 164 | 0.0 | 1.0 | 0.00 | 0.12 | 0.12 | 96 | 1004.8 |
| 20260506204057 | 61 | 219 | 0.0 | 2.0 | 0.00 | 0.12 | 0.12 | 96 | 1005.0 |
| 20260506203555 | 62 | 133 | 0.0 | 1.0 | 0.00 | 0.12 | 0.12 | 97 | 1004.9 |
| 20260506203052 | 62 | 163 | 0.0 | 1.0 | 0.00 | 0.12 | 0.12 | 96 | 1005.0 |
| 20260506202549 | 62 | 158 | 0.0 | 0.0 | 0.00 | 0.12 | 0.12 | 96 | 1005.1 |
| 20260506202045 | 62 | 265 | 0.0 | 1.0 | 0.00 | 0.12 | 0.12 | 96 | 1005.0 |
| 20260506201543 | 62 | 131 | 0.0 | 2.0 | 0.00 | 0.12 | 0.12 | 96 | 1005.1 |
| 20260506201040 | 62 | 107 | 1.0 | 2.0 | 0.07 | 0.12 | 0.12 | 97 | 1005.0 |
| 20260506200536 | 62 | 87 | 0.0 | 1.0 | 0.07 | 0.12 | 0.12 | 97 | 1004.9 |
| 20260506200033 | 62 | 179 | 0.0 | 2.0 | 0.00 | 0.11 | 0.11 | 97 | 1005.0 |
| 20260506195530 | 62 | 147 | 0.0 | 1.0 | 0.00 | 0.11 | 0.11 | 98 | 1005.0 |
| 20260506195026 | 62 | 154 | 0.0 | 0.0 | 0.05 | 0.11 | 0.11 | 98 | 1005.0 |
| 20260506194524 | 62 | 309 | 0.0 | 0.0 | 0.05 | 0.11 | 0.11 | 97 | 1005.3 |
| 20260506194020 | 62 | 156 | 0.0 | 0.0 | 0.07 | 0.10 | 0.10 | 97 | 1005.7 |
| 20260506193517 | 62 | 142 | 0.0 | 0.0 | 0.12 | 0.10 | 0.10 | 97 | 1005.4 |
| 20260506193014 | 62 | 137 | 0.0 | 0.0 | 0.05 | 0.09 | 0.09 | 97 | 1005.5 |
| 20260506192511 | 62 | 132 | 0.0 | 0.0 | 0.00 | 0.08 | 0.08 | 97 | 1005.5 |
| 20260506192007 | 62 | 121 | 0.0 | 0.0 | 0.00 | 0.08 | 0.08 | 96 | 1005.5 |
| 20260506191504 | 62 | 159 | 0.0 | 0.0 | 0.00 | 0.08 | 0.08 | 96 | 1005.5 |
| 20260506191000 | 62 | 138 | 0.0 | 0.0 | 0.00 | 0.08 | 0.08 | 96 | 1005.4 |
| 20260506190457 | 62 | 159 | 0.0 | 0.0 | 0.00 | 0.08 | 0.08 | 96 | 1005.5 |
| 20260506185954 | 62 | 134 | 0.0 | 0.0 | 0.07 | 0.08 | 0.08 | 97 | 1005.4 |
| 20260506185451 | 61 | 89 | 0.0 | 0.0 | 0.00 | 0.07 | 0.07 | 96 | 1005.4 |
| 20260506184948 | 61 | 64 | 0.0 | 0.0 | 0.00 | 0.07 | 0.07 | 96 | 1005.6 |
| 20260506184445 | 61 | 153 | 0.0 | 0.0 | 0.00 | 0.07 | 0.07 | 97 | 1005.8 |
| 20260506183942 | 61 | 177 | 0.0 | 0.0 | 0.00 | 0.07 | 0.07 | 97 | 1006.2 |
| 20260506183437 | 61 | 5 | 0.0 | 0.0 | 0.07 | 0.07 | 0.07 | 97 | 1006.1 |
| 20260506182935 | 61 | 142 | 1.0 | 1.0 | 0.12 | 0.07 | 0.07 | 96 | 1006.2 |
| 20260506182432 | 61 | 114 | 0.0 | 0.0 | 0.00 | 0.05 | 0.05 | 97 | 1006.4 |
| 20260506181929 | 61 | 129 | 0.0 | 1.0 | 0.00 | 0.05 | 0.05 | 96 | 1006.6 |
| 20260506181427 | 62 | 135 | 0.0 | 0.0 | 0.07 | 0.05 | 0.05 | 96 | 1006.6 |
| 20260506180924 | 62 | 236 | 0.0 | 0.0 | 0.07 | 0.05 | 0.05 | 95 | 1006.6 |
| 20260506180420 | 62 | 130 | 0.0 | 0.0 | 0.05 | 0.04 | 0.04 | 95 | 1006.7 |
| 20260506175917 | 62 | 145 | 0.0 | 0.0 | 0.05 | 0.04 | 0.04 | 94 | 1006.6 |
| 20260506175414 | 62 | 147 | 0.0 | 0.0 | 0.07 | 0.03 | 0.03 | 94 | 1006.7 |
| 20260506174911 | 62 | 176 | 0.0 | 0.0 | 0.07 | 0.03 | 0.03 | 93 | 1006.7 |
| 20260506174408 | 62 | 184 | 0.0 | 0.0 | 0.00 | 0.02 | 0.02 | 93 | 1007.0 |
| 20260506173905 | 62 | 94 | 0.0 | 0.0 | 0.05 | 0.02 | 0.02 | 92 | 1006.8 |
| 20260506173402 | 63 | 155 | 0.0 | 0.0 | 0.05 | 0.02 | 0.02 | 91 | 1007.0 |
| 20260506172859 | 63 | 238 | 0.0 | 0.0 | 0.00 | 0.01 | 0.01 | 89 | 1007.0 |
| 20260506172356 | 64 | 208 | 0.0 | 0.0 | 0.07 | 0.01 | 0.01 | 88 | 1006.8 |
| 20260506171853 | 64 | 197 | 0.0 | 0.0 | 0.07 | 0.01 | 0.01 | 85 | 1007.0 |
| 20260506171350 | 64 | 134 | 0.0 | 0.0 | 0.00 | 0.00 | 0.00 | 83 | 1006.9 |
| 20260506170848 | 65 | 114 | 0.0 | 1.0 | 0.00 | 0.00 | 0.00 | 82 | 1006.7 |
| 20260506170344 | 66 | 135 | 1.0 | 1.0 | 0.00 | 0.00 | 0.00 | 79 | 1006.7 |
| 20260506165843 | 66 | 130 | 2.0 | 4.0 | 0.00 | 0.00 | 0.00 | 75 | 1006.8 |
| 20260506165341 | 67 | 156 | 1.0 | 1.0 | 0.00 | 0.00 | 0.00 | 73 | 1007.0 |
| 20260506164837 | 68 | 259 | 1.0 | 2.0 | 0.00 | 0.00 | 0.00 | 72 | 1006.6 |
| 20260506164334 | 68 | 163 | 1.0 | 3.0 | 0.00 | 0.00 | 0.00 | 71 | 1006.6 |
| 20260506163831 | 68 | 180 | 2.0 | 2.0 | 0.00 | 0.00 | 0.00 | 70 | 1006.5 |
| 20260506163325 | 68 | 194 | 1.0 | 2.0 | 0.00 | 0.00 | 0.00 | 69 | 1006.7 |
| 20260506162821 | 68 | 217 | 2.0 | 2.0 | 0.00 | 0.00 | 0.00 | 68 | 1006.7 |
| 20260506162320 | 69 | 113 | 3.0 | 4.0 | 0.00 | 0.00 | 0.00 | 68 | 1006.9 |
| 20260506161817 | 69 | 208 | 1.0 | 1.0 | 0.00 | 0.00 | 0.00 | 69 | 1006.9 |
| 20260506161314 | 69 | 119 | 0.0 | 3.0 | 0.00 | 0.00 | 0.00 | 68 | 1007.0 |
| 20260506160806 | 69 | 231 | 0.0 | 1.0 | 0.00 | 0.00 | 0.00 | 68 | 1007.2 |
| 20260506160302 | 68 | 134 | 0.0 | 2.0 | 0.00 | 0.00 | 0.00 | 69 | 1007.2 |
| 20260506155801 | 68 | 135 | 2.0 | 2.0 | 0.00 | 0.00 | 0.00 | 69 | 1007.1 |
| 20260506155257 | 68 | 111 | 1.0 | 2.0 | 0.00 | 0.00 | 0.00 | 69 | 1007.5 |
| 20260506153404 | 68 | 244 | 2.0 | 3.0 | 0.00 | 0.00 | 0.00 | 71 | 1007.6 |
| 20260506152901 | 68 | 158 | 0.0 | 1.0 | 0.00 | 0.00 | 0.00 | 70 | 1007.9 |
| 20260506152358 | 68 | 70 | 0.0 | 0.0 | 0.00 | 0.00 | 0.00 | 70 | 1007.9 |
| 20260506151856 | 68 | 168 | 1.0 | 6.0 | 0.00 | 0.00 | 0.00 | 70 | 1008.0 |
| 20260506151353 | 68 | 96 | 2.0 | 4.0 | 0.00 | 0.00 | 0.00 | 70 | 1007.9 |
| 20260506150850 | 68 | 162 | 1.0 | 2.0 | 0.00 | 0.00 | 0.00 | 70 | 1008.0 |
| 20260506150347 | 68 | 121 | 0.0 | 1.0 | 0.00 | 0.00 | 0.00 | 74 | 1008.0 |
| 20260506145844 | 68 | 169 | 0.0 | 1.0 | 0.00 | 0.00 | 0.00 | 70 | 1007.9 |
| 20260506145340 | 67 | 280 | 0.0 | 1.0 | 0.00 | 0.00 | 0.00 | 72 | 1007.7 |
| 20260506144838 | 67 | 177 | 0.0 | 1.0 | 0.00 | 0.00 | 0.00 | 72 | 1007.8 |
| 20260506144334 | 67 | 180 | 2.0 | 3.0 | 0.00 | 0.00 | 0.00 | 71 | 1007.6 |
| 20260506143833 | 67 | 192 | 2.0 | 3.0 | 0.00 | 0.00 | 0.00 | 71 | 1007.9 |
| 20260506143329 | 67 | 184 | 1.0 | 1.0 | 0.00 | 0.00 | 0.00 | 72 | 1008.1 |
| 20260506142827 | 67 | 139 | 2.0 | 3.0 | 0.00 | 0.00 | 0.00 | 71 | 1008.0 |
| 20260506142325 | 67 | 194 | 1.0 | 2.0 | 0.00 | 0.00 | 0.00 | 71 | 1007.8 |
| 20260506141823 | 67 | 163 | 1.0 | 1.0 | 0.00 | 0.00 | 0.00 | 72 | 1007.8 |
| 20260506141321 | 67 | 85 | 3.0 | 4.0 | 0.00 | 0.00 | 0.00 | 71 | 1007.7 |
| 20260506140819 | 67 | 205 | 0.0 | 0.0 | 0.00 | 0.00 | 0.00 | 73 | 1007.7 |
| 20260506140315 | 67 | 123 | 1.0 | 2.0 | 0.00 | 0.00 | 0.00 | 73 | 1007.7 |
| 20260506135812 | 67 | 84 | 0.0 | 1.0 | 0.00 | 0.00 | 0.00 | 73 | 1007.6 |
| 20260506135308 | 66 | 88 | 0.0 | 1.0 | 0.00 | 0.00 | 0.00 | 75 | 1007.5 |
| 20260506134805 | 66 | 128 | 2.0 | 2.0 | 0.00 | 0.00 | 0.00 | 74 | 1007.5 |
| 20260506134302 | 65 | 248 | 0.0 | 2.0 | 0.00 | 0.00 | 0.00 | 76 | 1007.8 |
| 20260506133759 | 65 | 261 | 0.0 | 0.0 | 0.00 | 0.00 | 0.00 | 76 | 1007.6 |
| 20260506133256 | 64 | 310 | 0.0 | 2.0 | 0.00 | 0.00 | 0.00 | 78 | 1007.9 |
| 20260506132752 | 64 | 243 | 0.0 | 1.0 | 0.00 | 0.00 | 0.00 | 78 | 1007.9 |
| 20260506132250 | 64 | 304 | 2.0 | 2.0 | 0.00 | 0.00 | 0.00 | 78 | 1008.2 |
| 20260506131748 | 64 | 155 | 0.0 | 0.0 | 0.00 | 0.00 | 0.00 | 77 | 1008.2 |
| 20260506131243 | 64 | 155 | 1.0 | 2.0 | 0.00 | 0.00 | 0.00 | 77 | 1008.2 |
| 20260506130740 | 64 | 192 | 0.0 | 0.0 | 0.00 | 0.00 | 0.00 | 78 | 1008.5 |
| 20260506130237 | 64 | 218 | 1.0 | 1.0 | 0.00 | 0.00 | 0.00 | 81 | 1008.2 |
| 20260506125735 | 63 | 136 | 0.0 | 1.0 | 0.00 | 0.00 | 0.00 | 79 | 1008.4 |
| 20260506125233 | 63 | 301 | 0.0 | 0.0 | 0.00 | 0.00 | 0.00 | 81 | 1008.4 |
| 20260506124731 | 63 | 150 | 0.0 | 0.0 | 0.00 | 0.00 | 0.00 | 80 | 1008.3 |
| 20260506124228 | 63 | 177 | 1.0 | 1.0 | 0.00 | 0.00 | 0.00 | 79 | 1008.4 |
| 20260506123725 | 63 | 165 | 1.0 | 1.0 | 0.00 | 0.00 | 0.00 | 78 | 1008.4 |
| 20260506123224 | 63 | 143 | 0.0 | 1.0 | 0.00 | 0.00 | 0.00 | 79 | 1008.1 |
| 20260506122720 | 63 | 129 | 0.0 | 1.0 | 0.00 | 0.00 | 0.00 | 79 | 1008.2 |
| 20260506122218 | 62 | 253 | 1.0 | 1.0 | 0.00 | 0.00 | 0.00 | 79 | 1008.2 |
| 20260506121716 | 62 | 128 | 0.0 | 1.0 | 0.00 | 0.00 | 0.00 | 80 | 1008.2 |
| 20260506121212 | 62 | 127 | 0.0 | 0.0 | 0.00 | 0.00 | 0.00 | 84 | 1008.1 |
| 20260506120710 | 61 | 112 | 0.0 | 0.0 | 0.00 | 0.00 | 0.00 | 83 | 1008.4 |
| 20260506120207 | 61 | 133 | 0.0 | 0.0 | 0.00 | 0.00 | 0.00 | 84 | 1008.5 |
| 20260506115706 | 61 | 206 | 0.0 | 0.0 | 0.00 | 0.00 | 0.00 | 82 | 1008.4 |
| 20260506115203 | 61 | 104 | 0.0 | 0.0 | 0.00 | 0.00 | 0.00 | 83 | 1008.5 |
| 20260506114700 | 60 | 130 | 0.0 | 1.0 | 0.00 | 0.00 | 0.00 | 87 | 1008.6 |
| 20260506114158 | 60 | 130 | 0.0 | 1.0 | 0.00 | 0.00 | 0.00 | 87 | 1008.6 |
| 20260506113656 | 59 | 197 | 0.0 | 0.0 | 0.00 | 0.00 | 0.00 | 88 | 1008.6 |
| 20260506113154 | 59 | 153 | 0.0 | 0.0 | 0.00 | 0.00 | 0.00 | 87 | 1008.5 |
| 20260506112649 | 59 | 193 | 0.0 | 0.0 | 0.00 | 0.00 | 0.00 | 87 | 1008.6 |
| 20260506112147 | 58 | 197 | 0.0 | 0.0 | 0.00 | 0.00 | 0.00 | 87 | 1008.6 |
| 20260506111645 | 58 | 200 | 0.0 | 0.0 | 0.00 | 0.00 | 0.00 | 88 | 1008.6 |
| 20260506111142 | 58 | 166 | 0.0 | 0.0 | 0.00 | 0.00 | 0.00 | 89 | 1008.8 |
| 20260506110639 | 57 | 196 | 0.0 | 0.0 | 0.00 | 0.00 | 0.00 | 90 | 1008.6 |
| 20260506110137 | 57 | 228 | 0.0 | 0.0 | 0.00 | 0.00 | 0.00 | 90 | 1008.6 |
| 20260506105633 | 57 | 186 | 0.0 | 1.0 | 0.00 | 0.00 | 0.00 | 89 | 1008.6 |
| 20260506105130 | 56 | 176 | 0.0 | 0.0 | 0.00 | 0.00 | 0.00 | 89 | 1008.7 |
| 20260506104628 | 56 | 212 | 0.0 | 0.0 | 0.00 | 0.00 | 0.00 | 90 | 1008.6 |
| 20260506104126 | 56 | 188 | 0.0 | 0.0 | 0.00 | 0.00 | 0.00 | 90 | 1008.6 |
| 20260506103623 | 56 | 185 | 0.0 | 0.0 | 0.00 | 0.00 | 0.00 | 89 | 1009.0 |
| 20260506103120 | 56 | 220 | 0.0 | 0.0 | 0.00 | 0.00 | 0.00 | 90 | 1008.8 |
| 20260506102618 | 55 | 197 | 0.0 | 0.0 | 0.00 | 0.00 | 0.00 | 90 | 1008.7 |
| 20260506102115 | 56 | 188 | 0.0 | 1.0 | 0.00 | 0.00 | 0.00 | 89 | 1008.6 |
| 20260506101611 | 56 | 221 | 0.0 | 1.0 | 0.00 | 0.00 | 0.00 | 89 | 1008.7 |
| 20260506101108 | 55 | 208 | 0.0 | 1.0 | 0.00 | 0.00 | 0.00 | 89 | 1008.6 |
| 20260506100607 | 55 | 229 | 0.0 | 0.0 | 0.00 | 0.00 | 0.00 | 90 | 1008.5 |
| 20260506100104 | 55 | 220 | 0.0 | 0.0 | 0.00 | 0.00 | 0.00 | 90 | 1008.6 |
| 20260506095603 | 55 | 207 | 0.0 | 0.0 | 0.00 | 0.00 | 0.00 | 89 | 1008.7 |
| 20260506095059 | 55 | 229 | 0.0 | 0.0 | 0.00 | 0.00 | 0.00 | 90 | 1008.7 |
| 20260506094557 | 55 | 202 | 0.0 | 2.0 | 0.00 | 0.00 | 0.00 | 91 | 1008.4 |
| 20260506094055 | 55 | 187 | 0.0 | 0.0 | 0.00 | 0.00 | 0.00 | 90 | 1008.5 |
| 20260506093553 | 55 | 165 | 0.0 | 0.0 | 0.00 | 0.00 | 0.00 | 91 | 1008.6 |
| 20260506093050 | 55 | 185 | 0.0 | 0.0 | 0.00 | 0.00 | 0.00 | 91 | 1008.6 |
| 20260506092548 | 55 | 146 | 0.0 | 0.0 | 0.00 | 0.00 | 0.00 | 90 | 1008.6 |
| 20260506092044 | 55 | 144 | 0.0 | 0.0 | 0.00 | 0.00 | 0.00 | 90 | 1008.5 |
| 20260506091543 | 55 | 192 | 0.0 | 0.0 | 0.00 | 0.00 | 0.00 | 90 | 1008.7 |
| 20260506091039 | 55 | 138 | 0.0 | 0.0 | 0.00 | 0.00 | 0.00 | 90 | 1008.5 |
| 20260506090537 | 55 | 144 | 0.0 | 0.0 | 0.00 | 0.00 | 0.00 | 89 | 1008.5 |
| 20260506090033 | 55 | 150 | 0.0 | 0.0 | 0.00 | 0.00 | 0.00 | 89 | 1008.8 |
| 20260506085530 | 55 | 189 | 0.0 | 0.0 | 0.00 | 0.00 | 0.00 | 89 | 1008.7 |
| 20260506085027 | 55 | 160 | 0.0 | 0.0 | 0.00 | 0.00 | 0.00 | 89 | 1008.7 |
| 20260506084524 | 55 | 149 | 0.0 | 0.0 | 0.00 | 0.00 | 0.00 | 90 | 1008.6 |
| 20260506084020 | 56 | 298 | 0.0 | 0.0 | 0.00 | 0.00 | 0.00 | 90 | 1008.6 |
| 20260506083517 | 56 | 122 | 0.0 | 0.0 | 0.00 | 0.00 | 0.00 | 90 | 1008.6 |
| 20260506083015 | 56 | 113 | 0.0 | 0.0 | 0.00 | 0.00 | 0.00 | 90 | 1008.4 |
| 20260506082511 | 56 | 113 | 0.0 | 0.0 | 0.00 | 0.00 | 0.00 | 90 | 1008.6 |
| 20260506082007 | 56 | 116 | 0.0 | 0.0 | 0.00 | 0.00 | 0.00 | 89 | 1008.6 |
| 20260506081505 | 57 | 13 | 0.0 | 0.0 | 0.00 | 0.00 | 0.00 | 88 | 1008.5 |
| 20260506081002 | 57 | 304 | 0.0 | 0.0 | 0.00 | 0.00 | 0.00 | 86 | 1008.8 |
| 20260506080459 | 58 | 302 | 0.0 | 0.0 | 0.00 | 0.00 | 0.00 | 85 | 1008.7 |
| 20260506073443 | 59 | 297 | 0.0 | 0.0 | 0.00 | 0.00 | 0.00 | 82 | 1008.6 |
| 20260506072940 | 60 | 280 | 0.0 | 0.0 | 0.00 | 0.00 | 0.00 | 81 | 1008.6 |
| 20260506072437 | 60 | 162 | 0.0 | 0.0 | 0.00 | 0.00 | 0.00 | 80 | 1008.5 |
| 20260506071936 | 60 | 205 | 0.0 | 0.0 | 0.00 | 0.00 | 0.00 | 79 | 1008.8 |
| 20260506071433 | 60 | 143 | 0.0 | 0.0 | 0.00 | 0.00 | 0.00 | 79 | 1008.5 |
| 20260506070930 | 60 | 143 | 0.0 | 0.0 | 0.00 | 0.00 | 0.00 | 78 | 1008.7 |
| 20260506070426 | 60 | 142 | 0.0 | 0.0 | 0.00 | 0.00 | 0.00 | 78 | 1008.5 |
| 20260506062404 | 61 | 1 | 0.0 | 0.0 | 0.00 | 0.00 | 0.00 | 78 | 1008.3 |
| 20260506061900 | 62 | 334 | 0.0 | 0.0 | 0.00 | 0.00 | 0.00 | 77 | 1008.3 |
| 20260506061357 | 61 | 117 | 0.0 | 0.0 | 0.00 | 0.00 | 0.00 | 75 | 1008.4 |
| 20260506060855 | 62 | 150 | 0.0 | 0.0 | 0.00 | 0.00 | 0.00 | 75 | 1008.2 |